Fort Leonard Wood, MO

10:17 PM CDT on October 22, 2019 (GMT -0500)
Waynesville Regional At Forney Field

Weather History for KTBN - May, 2019

Change the Weather History Date:

Wednesday, May 15, 2019

  Actual Average Record
Temperature  
Mean Temperature 72 °F -  
Max Temperature 83 °F 74 °F 86 °F (1998)
Min Temperature 61 °F 56 °F 37 °F (2014)
Cooling Degree Days 6    
Growing Degree Days 22 (Base 50)    
Moisture  
Dew Point 60 °F    
Average Humidity 72    
Maximum Humidity 90    
Minimum Humidity 42    
Precipitation  
Precipitation 0.00 in - - ()
Sea Level Pressure  
Sea Level Pressure 29.92 in    
Wind  
Wind Speed 6 mph (WSW)    
Max Wind Speed 10 mph    
Max Gust Speed -    
Visibility 10 miles    
Events Rain , Thunderstorm    
Averages and records for this station are not official NWS values.
T = Trace of Precipitation, MM = Missing Value Source: NWS Daily Summary

Daily Weather History Graph

Daily Weather History Graph

Search for Another Location

Airport or City:

Astronomy

May. 15, 2019 Rise Set
Actual Time 5:58 AM CDT 8:11 PM CDT
Civil Twilight 5:29 AM CDT 8:40 PM CDT
Nautical Twilight 4:53 AM CDT 9:16 PM CDT
Astronomical Twilight 4:14 AM CDT 9:56 PM CDT
Moon 4:47 PM CDT (5/15) 4:19 AM CDT (5/15)
Length of Visible Light 15h 11m
Length of Day
14h 12m
Waxing Gibbous, 87% of the Moon is Illuminated
May 15
Waxing Gibbous
May 18
Full
May 26
Last Quarter
Jun 3
New
Jun 10
First Quarter

Hourly Weather History & Observations

Time (CDT) Temp. Heat Index Dew Point Humidity Pressure Visibility Wind Dir Wind Speed Gust Speed Precip Events Conditions
12:56 AM 63.1 °F - 57.6 °F 82% 29.93 in 10.0 mi SE 8.1 mph - N/A   Scattered Clouds
1:56 AM 61.9 °F - 57.6 °F 86% 29.90 in 10.0 mi SE 8.1 mph - N/A   Partly Cloudy
2:53 AM 62.6 °F - 57.2 °F 82% 29.90 in 10.0 mi South 4.6 mph - N/A Rain , Thunderstorm Light Rain
2:56 AM 62.4 °F - 58.1 °F 86% 29.90 in 10.0 mi South 4.6 mph - 0.00 in Rain , Thunderstorm Light Rain
3:05 AM 62.6 °F - 59.0 °F 88% 29.90 in 10.0 mi Calm Calm - N/A Rain , Thunderstorm Light Thunderstorms and Rain
3:32 AM 62.6 °F - 59.0 °F 88% 29.90 in 10.0 mi South 4.6 mph - N/A Thunderstorm Thunderstorm
3:40 AM 62.6 °F - 59.0 °F 88% 29.89 in 10.0 mi SSE 5.8 mph - N/A   Scattered Clouds
3:56 AM 62.4 °F - 59.4 °F 90% 29.89 in 10.0 mi South 8.1 mph - 0.00 in   Partly Cloudy
4:56 AM 62.2 °F - 59.2 °F 90% 29.88 in 10.0 mi SW 5.8 mph - N/A   Scattered Clouds
6:56 AM 62.6 °F - 59.0 °F 88% 29.91 in 10.0 mi SW 5.8 mph - N/A   Partly Cloudy
7:56 AM 65.3 °F - 59.4 °F 81% 29.93 in 10.0 mi WSW 5.8 mph - N/A   Partly Cloudy
8:56 AM 70.9 °F - 60.3 °F 69% 29.94 in 10.0 mi West 9.2 mph - N/A   Clear
9:56 AM 74.5 °F - 61.0 °F 63% 29.94 in 10.0 mi WNW 10.4 mph - N/A   Clear
10:56 AM 76.6 °F - 62.6 °F 62% 29.94 in 10.0 mi NW 5.8 mph - N/A   Clear
11:56 AM 77.9 °F - 61.9 °F 58% 29.94 in 10.0 mi NNW 8.1 mph - N/A   Partly Cloudy
12:56 PM 80.4 °F 81.4 °F 61.2 °F 52% 29.94 in 10.0 mi NNW 9.2 mph - N/A   Haze
1:56 PM 82.4 °F 82.3 °F 58.3 °F 44% 29.94 in 10.0 mi NNW 6.9 mph - N/A   Mostly Cloudy
2:56 PM 82.9 °F 82.6 °F 57.4 °F 42% 29.94 in 10.0 mi NNW 5.8 mph - N/A   Partly Cloudy
3:56 PM 81.9 °F 81.9 °F 58.5 °F 45% 29.91 in 10.0 mi NW 9.2 mph - N/A   Partly Cloudy
4:56 PM 82.6 °F 82.3 °F 57.7 °F 43% 29.91 in 10.0 mi NNW 4.6 mph - N/A   Clear
5:56 PM 82.4 °F 82.0 °F 57.0 °F 42% 29.91 in 10.0 mi Calm Calm - N/A   Clear
6:56 PM 77.5 °F - 58.5 °F 52% 29.91 in 10.0 mi North 3.5 mph - N/A   Clear
7:56 PM 72.9 °F - 64.4 °F 75% 29.91 in 10.0 mi Calm Calm - N/A   Clear
8:56 PM 68.5 °F - 63.5 °F 84% 29.92 in 10.0 mi Calm Calm - N/A   Clear
9:56 PM 67.1 °F - 62.1 °F 84% 29.93 in 10.0 mi Calm Calm - N/A   Clear
10:56 PM 66.9 °F - 61.5 °F 83% 29.93 in 10.0 mi Calm Calm - N/A   Partly Cloudy
11:56 PM 65.3 °F - 60.6 °F 85% 29.93 in 10.0 mi SE 4.6 mph - N/A   Clear